Cam: Der Himmel über Mannheim, aktuelles Bild mit Wetterinformationen (Metar)



Der Himmel über Mannheim
Die WebCam zeigt nach Norden. (Feudenheim 3km, Vogelstang 6km, Frankfurt 70km)

Letzter SYNOP von MA-Vogelstang. Zeitformat[UTC].
Beispiel: 18hr entspricht 19:00 Uhr oder bei Sommerzeit 20 Uhr


Das aktuelle Wetter in Baden Wurttemberg, Neuostheim, Germany:

Baden Wurttemberg, Neuostheim, Germany stehen keine DATEN zur Verfügung.
METAR:

Das aktuelle Wetter in Mannheim, Seckenheim, Germany

0968: Neuester Wetterbericht von 01:25 Uhr. Der Wind war ruhig. Die Temperatur war 10 °C (50 °F) bei einem Taupunkt von 9 °C (48 °F). Der Luftdruck stand auf 1018 hPa (30.06 inHg). Die relative Luftfeuchtigkeit erreichte 93.5%.
METAR: 09682 170025Z 00000KT 10/09 Q1018

Mehr zum Thema Metar


Nach oben

HomeHome

Schnellzugriff auf diese Seite mit c.maw24.de oder cam.Mannheim-Wetter.Info


XHTML 1.0 Transitional